Regional Weather Roundup
Issued by NWS

Home | Current Version | Previous Version | Graphics & Text | Print | Product List | Glossary On
Versions: 1 2 3 4 5 6 7 8 9 10 11 12 13 14 15 16 17 18 19 20 21 22 23 24 25 26 27 28 29 30 31 32 33 34 35 36 37 38 39 40 41 42 43 44 45 46 47 48 49 50
000
ASUS45 KSLC 232010
RWRUT

UTAH REGIONAL WEATHER ROUNDUP
NATIONAL WEATHER SERVICE SALT LAKE CITY UT
100 PM MST MON JAN 23 2017

UTZ001>011-023>025-232100-

NORTHERN UTAH

CITY           SKY/WX    TMP DP  RH WIND       PRES   REMARKS
BRIGHAM CITY     N/A     35  32  89 S18G24    29.43S WCI  24
HILL AFB       LGT SNOW  36  28  75 S22G28    29.41S WCI  24
LOGAN          LGT SNOW  32  31  96 N3        29.40F VSB 3/4
OGDEN          LGT SNOW  35  30  82 S16G29    29.42F WCI  25
SALT LAKE CITY CLOUDY    40  28  62 S22G29    29.42F WCI  30
TOOELE VALLEY  CLOUDY    37  32  81 SW16G26   29.45R WCI  28
WENDOVER       CLOUDY    36  27  69 W9        29.49F WCI  29
HEBER CITY     CLOUDY    37  21  52 SW12G25   29.44F WCI  30
WEST JORDAN    CLOUDY    35  35  96 SE23G33   29.45F WCI  24

$$

UTZ011>015-024>027-232100-

CENTRAL/NORTHEAST UTAH

CITY           SKY/WX    TMP DP  RH WIND       PRES   REMARKS
PROVO AIRPORT  LGT RAIN  36  28  75 SW23G30   29.51F WCI  24
MOAB/CANYONLAN CLOUDY    48  32  53 S22G28    29.50F
DELTA          CLOUDY    36  28  75 SW23      29.55R WCI  24
PRICE          CLOUDY    31  31 100 S9        29.50F FOG     WCI  23
RICHFIELD      PTSUNNY   37  25  60 SW20G32   29.58F WCI  27
ROOSEVELT      SNOW      32  28  86 S3        29.54F VSB 1/2
VERNAL         LGT SNOW  33  29  85 W14       29.50  FOG     WCI  23

$$

UTZ013>016-019>022-027-232100-

SOUTHERN UTAH

CITY           SKY/WX    TMP DP  RH WIND       PRES   REMARKS
BRYCE CANYON   MIX PCPN  24  17  74 W29G38    29.61F WCI   7
CEDAR CITY     MOSUNNY   34  26  72 SW26G33   29.62F WCI  21
MILFORD        PTSUNNY   38  26  62 SW26G37   29.59F WCI  26
ST GEORGE      MOCLDY    48  27  43 W17G24    29.71F
HANKSVILLE     CLOUDY    39  36  87 MISG      29.60R
KANAB          CLOUDY    37  30  75 SW16G22   29.72F WCI  28
BLANDING       CLOUDY    36  32  87 S10G29    29.74F WCI  28

$$

REGIONAL REPORTS     COLORADO/ARIZONA

CITY           SKY/WX    TMP DP  RH WIND       PRES   REMARKS
CRAIG, CO      CLOUDY    39  25  57 SW18      29.54F WCI  30
GRAND JUNCTION CLOUDY    50  29  44 S24G32    29.55F
RIFLE, CO      LGT RAIN  40  32  73 NE6       29.58F
MONTROSE, CO   LGT RAIN  47  28  47 SW37G47   29.62F
CORTEZ, CO     FLURRIES  38  31  76 SW16G24   29.74F WCI  29
COLORADO CITY  CLOUDY    39  32  75 W18G25    29.73F WCI  30
PAGE, AZ       RAIN      38  30  73 W18G30    29.67R WCI  28
GRAND CANYON   CLOUDY    33  30  88 SW18G32   29.71F WCI  22
KINGMAN, AZ    PTSUNNY   45  38  76 SW20      29.77F
FLAGSTAFF, AZ  SNOW      32  31  96 SW18G30   29.72F VSB 1/2 WCI  20

$$

REGIONAL REPORTS    NEVADA/IDAHO/WYOMING

CITY           SKY/WX    TMP DP  RH WIND       PRES   REMARKS
LAS VEGAS, NV  PTSUNNY   50  30  46 SW25G33   29.69F
ELY, NY        CLOUDY    28  16  60 W13       29.59S WCI  17
ELKO, NV       CLOUDY    31  25  78 W21       29.58S WCI  18
POCATELLO, ID  LGT SNOW  33  31  92 N9        29.42F FOG     WCI  25
BURLEY, ID     SNOW      32  29  88 W12       29.44F VSB 1/2 WCI  23
FORT BRIDGER,  SNOW      23  23 100 W5        29.48F VSB 1/4 WCI  17
EVANSTON, WY   CLOUDY    27  23  85 S16       29.41F WCI  15
ROCK SPRINGS,  CLOUDY    33  24  69 S8        29.46F WCI  26
KEMMERER, WY   SNOW      27  21  80 SE5       29.47  VSB 1/2 WCI  21

$$



USA.gov is the U.S. government's official web portal to all federal, state and local government web resources and services.